Date String (YYYY-MM-DD hh:mm:ss) UTC,Instrument flags,absolute air pressure of the measurement (hPa),sample flow rate (lpm),inlet stack bypass flow (lpm),air temperature of the measurement (°C),ambient temperature measured by the external sensor (°C),aerosol sample conditioner tube jacket temperature (°C),OPC LED temperature (°C),internal box temperature (°C),relative humidity of the measurement (%),span deviation,mass concentration of particles derived from Lorenz-Mie calculation of OPC scattering (μg/m³),mass concentration of particles derived from Lorenz-Mie calculation of OPC scattering (μg/m³),mass concentration of particles derived from Lorenz-Mie calculation of OPC scattering (μg/m³)
DateTimeUTC,F1_M11,P_M11,Q1_M11,Q2_M11,T1_M11,T2_M11,T3_M11,T4_M11,T5_M11,U1_M11,ZSPAN_M11,X2_M11,X0_M11,X1_M11
2023-08-24 22:00:00,SystemResetWarning,0832.0,5.00,000.00,027.5,025.6,000.0,035.7,029.3,32.2,0000.7,0007.96,0016.03,0006.80
2023-08-24 22:01:00,SystemResetWarning,0832.0,5.01,000.00,027.6,026.0,000.0,035.8,029.5,32.2,0000.9,0008.02,0016.31,0006.81
2023-08-24 22:02:00,SystemResetWarning,0832.0,5.00,000.00,027.6,025.8,000.0,035.7,029.4,31.8,0000.7,0008.04,0016.92,0006.80
2023-08-24 22:03:00,SystemResetWarning,0831.9,4.98,000.00,027.6,024.5,000.0,035.7,029.1,31.7,0000.8,0008.02,0016.86,0006.81
2023-08-24 22:04:00,SystemResetWarning,0831.8,5.01,000.00,027.5,024.2,000.0,035.6,029.0,32.0,0001.0,0007.99,0016.37,0006.81
2023-08-24 22:05:00,SystemResetWarning,0832.0,5.01,000.00,027.5,024.5,000.0,035.6,029.0,32.2,0000.9,0008.07,0016.11,0006.81
2023-08-24 22:06:00,SystemResetWarning,0831.8,4.99,000.00,027.5,024.9,000.0,035.7,029.1,32.1,0000.7,0008.06,0016.53,0006.81
2023-08-24 22:07:00,SystemResetWarning,0831.8,5.00,000.00,027.5,025.4,000.0,035.7,029.3,31.8,0001.3,0008.11,0016.66,0006.81
2023-08-24 22:08:00,SystemResetWarning,0831.9,5.01,000.00,027.6,025.8,000.0,035.8,029.4,32.0,0001.3,0008.13,0016.80,0006.82
2023-08-24 22:09:00,SystemResetWarning,0831.9,5.00,000.00,027.6,026.1,000.0,035.8,029.5,31.9,0001.3,0008.18,0016.97,0006.82
2023-08-24 22:10:00,SystemResetWarning,0831.8,4.98,000.00,027.6,025.0,000.0,035.7,029.2,32.1,0001.3,0008.15,0016.85,0006.82
2023-08-24 22:11:00,SystemResetWarning,0831.8,5.00,000.00,027.5,024.0,000.0,035.6,029.0,32.1,0001.2,0008.10,0016.26,0006.80
2023-08-24 22:12:00,SystemResetWarning,0831.8,5.02,000.00,027.5,024.2,000.0,035.6,029.0,31.8,0000.8,0008.02,0015.77,0006.79
2023-08-24 22:13:00,SystemResetWarning,0832.3,4.99,000.00,027.5,024.6,000.0,035.7,029.0,31.8,0001.0,0007.99,0015.27,0006.80
2023-08-24 22:14:00,SystemResetWarning,0832.2,4.99,000.00,027.5,025.1,000.0,035.7,029.2,31.7,0000.9,0007.99,0015.16,0006.79
2023-08-24 22:15:00,SystemResetWarning,0832.2,5.00,000.00,027.5,025.6,000.0,035.7,029.3,31.5,0000.8,0007.97,0014.81,0006.79
2023-08-24 22:16:00,SystemResetWarning,0831.8,5.01,000.00,027.6,026.0,000.0,035.8,029.5,31.8,0000.9,0007.95,0014.89,0006.79
2023-08-24 22:17:00,SystemResetWarning,0831.9,4.99,000.00,027.7,026.2,000.0,035.8,029.5,32.1,0001.0,0007.95,0015.07,0006.80
2023-08-24 22:18:00,SystemResetWarning,0831.9,4.99,000.00,027.6,025.1,000.0,035.7,029.3,32.0,0000.7,0007.91,0015.11,0006.80
2023-08-24 22:19:00,SystemResetWarning,0832.1,5.00,000.00,027.6,024.2,000.0,035.7,029.1,31.9,0000.5,0007.88,0015.28,0006.79
2023-08-24 22:20:00,SystemResetWarning,0832.2,5.01,000.00,027.5,024.3,000.0,035.6,029.1,32.3,0000.5,0007.88,0015.19,0006.80
2023-08-24 22:21:00,SystemResetWarning,0832.0,5.01,000.00,027.5,024.7,000.0,035.7,029.1,32.3,0000.6,0007.87,0016.08,0006.81
2023-08-24 22:22:00,SystemResetWarning,0832.0,4.99,000.00,027.5,025.2,000.0,035.7,029.2,33.4,0000.6,0007.91,0016.46,0006.82
2023-08-24 22:23:00,SystemResetWarning,0831.8,5.01,000.00,027.6,025.7,000.0,035.8,029.4,34.1,0000.7,0007.93,0017.28,0006.81
2023-08-24 22:24:00,SystemResetWarning,0831.9,5.00,000.00,027.6,025.9,000.0,035.8,029.4,33.9,0000.1,0007.95,0017.98,0006.81
2023-08-24 22:25:00,SystemResetWarning,0831.8,4.98,000.00,027.6,024.8,000.0,035.7,029.1,33.8,0000.2,0007.97,0018.41,0006.79
2023-08-24 22:26:00,SystemResetWarning,0831.8,5.02,000.00,027.5,023.9,000.0,035.6,028.9,33.9,-000.2,0008.01,0018.69,0006.78
2023-08-24 22:27:00,SystemResetWarning,0831.9,5.01,000.00,027.4,024.1,000.0,035.6,028.9,33.6,-000.3,0008.01,0018.61,0006.78
2023-08-24 22:28:00,SystemResetWarning,0831.9,4.99,000.00,027.4,024.5,000.0,035.7,029.0,33.0,-000.5,0007.99,0017.92,0006.78
2023-08-24 22:29:00,SystemResetWarning,0832.1,5.00,000.00,027.4,025.0,000.0,035.7,029.1,32.9,-000.1,0008.04,0018.11,0006.78
2023-08-24 22:30:00,SystemResetWarning,0832.3,5.00,000.00,027.5,025.5,000.0,035.7,029.2,32.3,0000.0,0008.04,0018.04,0006.79
2023-08-24 22:31:00,SystemResetWarning,0831.9,5.00,000.00,027.5,026.0,000.0,035.8,029.4,32.4,0000.1,0008.04,0017.87,0006.78
2023-08-24 22:32:00,SystemResetWarning,0831.8,4.99,000.00,027.6,026.2,000.0,035.8,029.4,32.1,-000.1,0008.07,0016.87,0006.79
2023-08-24 22:33:00,SystemResetWarning,0831.8,4.98,000.00,027.6,025.0,000.0,035.7,029.2,32.4,-000.0,0008.08,0016.82,0006.77
2023-08-24 22:34:00,SystemResetWarning,0831.9,5.01,000.00,027.5,024.1,000.0,035.6,029.0,32.6,-000.1,0008.14,0016.16,0006.78
2023-08-24 22:35:00,SystemResetWarning,0832.0,5.01,000.00,027.5,024.2,000.0,035.6,029.0,32.1,0000.2,0008.18,0015.61,0006.79
2023-08-24 22:36:00,SystemResetWarning,0832.0,5.00,000.00,027.4,024.6,000.0,035.7,029.0,32.1,0000.8,0008.16,0015.77,0006.79
2023-08-24 22:37:00,SystemResetWarning,0832.2,4.99,000.00,027.5,025.1,000.0,035.7,029.2,31.9,0001.3,0008.11,0015.42,0006.80
2023-08-24 22:38:00,SystemResetWarning,0832.2,5.01,000.00,027.5,025.6,000.0,035.7,029.3,32.8,0001.3,0008.07,0015.02,0006.80
2023-08-24 22:39:00,SystemResetWarning,0832.0,5.00,000.00,027.6,026.0,000.0,035.8,029.4,33.1,0001.3,0008.09,0015.18,0006.80
2023-08-24 22:40:00,SystemResetWarning,0831.8,4.99,000.00,027.6,025.5,000.0,035.7,029.3,32.9,0000.7,0008.07,0014.83,0006.80
2023-08-24 22:41:00,SystemResetWarning,0831.7,4.99,000.00,027.5,024.2,000.0,035.6,029.0,33.2,0000.7,0008.10,0014.70,0006.79
2023-08-24 22:42:00,SystemResetWarning,0831.7,5.02,000.00,027.4,024.0,000.0,035.6,028.9,33.2,0000.6,0008.07,0014.82,0006.79
2023-08-24 22:43:00,SystemResetWarning,0831.6,4.99,000.00,027.4,024.3,000.0,035.6,028.9,32.8,0001.0,0008.10,0015.52,0006.80
2023-08-24 22:44:00,SystemResetWarning,0831.6,4.99,000.00,027.4,024.8,000.0,035.7,029.1,33.0,0000.7,0008.10,0015.28,0006.81
2023-08-24 22:45:00,SystemResetWarning,0831.6,5.01,000.00,027.4,025.3,000.0,035.7,029.2,32.5,0000.9,0008.05,0015.07,0006.80
2023-08-24 22:46:00,SystemResetWarning,0831.6,5.01,000.00,027.5,025.8,000.0,035.7,029.3,31.7,0000.6,0008.00,0014.99,0006.79
2023-08-24 22:47:00,SystemResetWarning,0831.6,5.00,000.00,027.6,026.2,000.0,035.8,029.5,31.5,0000.1,0008.00,0014.87,0006.78
2023-08-24 22:48:00,SystemResetWarning,0831.6,4.99,000.00,027.6,025.7,000.0,035.7,029.3,31.3,-000.4,0008.03,0014.74,0006.77
2023-08-24 22:49:00,SystemResetWarning,0831.6,5.01,000.00,027.5,024.4,000.0,035.6,029.0,31.3,-000.4,0008.02,0014.82,0006.75
2023-08-24 22:50:00,SystemResetWarning,0831.6,5.01,000.00,027.5,024.1,000.0,035.6,028.9,32.2,-000.6,0007.99,0014.91,0006.73
2023-08-24 22:51:00,SystemResetWarning,0831.6,5.00,000.00,027.4,024.4,000.0,035.6,028.9,32.2,-000.3,0007.97,0014.76,0006.71
2023-08-24 22:52:00,SystemResetWarning,0831.6,5.00,000.00,027.4,024.9,000.0,035.7,029.1,32.3,-000.2,0007.90,0014.59,0006.69
2023-08-24 22:53:00,SystemResetWarning,0831.6,5.00,000.00,027.5,025.4,000.0,035.7,029.2,32.6,0000.1,0007.86,0014.37,0006.67
2023-08-24 22:54:00,SystemResetWarning,0831.6,5.00,000.00,027.5,025.9,000.0,035.7,029.4,33.3,-000.4,0007.81,0013.68,0006.63
2023-08-24 22:55:00,SystemResetWarning,0831.6,4.99,000.00,027.6,026.0,000.0,035.8,029.4,33.2,-000.5,0007.75,0014.19,0006.60
2023-08-24 22:56:00,SystemResetWarning,0831.6,4.99,000.00,027.6,024.8,000.0,035.7,029.2,33.5,-000.5,0007.74,0014.80,0006.58
2023-08-24 22:57:00,SystemResetWarning,0831.6,5.00,000.00,027.5,023.9,000.0,035.6,028.9,33.3,-000.4,0007.69,0014.97,0006.55
2023-08-24 22:58:00,SystemResetWarning,0831.6,5.01,000.00,027.4,024.2,000.0,035.6,028.9,33.9,-000.3,0007.66,0015.09,0006.52
2023-08-24 22:59:00,SystemResetWarning,0831.5,5.00,000.00,027.4,024.6,000.0,035.7,029.0,34.0,0000.1,0007.62,0016.03,0006.49
